Weather in Karpina Gora

Russia / Novgorod Oblast     58°38′10″N   32°29′06″E
temp.,
°C
wind,
m/s
gust,
m/s
humid.,
%
clouds,
%
prec.,
mm/h
press.,
hPa
HPBL,
m
29 june, wed
wed2900:00+16ese3115627 0.0 1023335
03:00+13e396743 0.0 1023211
06:00+15se310651 0.0 1023297
09:00+20se35400 0.0 1023656
12:00+24ese33300 0.0 10221438
15:00+25e22240 0.0 10211792
18:00+25e22280 0.0 10201698
21:00+18ese24555 0.0 102052
30 june, thu
thu3000:00+15ese22560 0.0 102038
03:00+13ese22660 0.0 102112
06:00+15ese12665 0.0 102158
09:00+22e11445 0.0 1021447
12:00+26ne232920 0.0 10211755
15:00+27nne232546 0.0 10202110
18:00+27ne233088 0.0 10201924
21:00+20ne11535 0.0 102011
1 july, fri
fri100:00+16ne24615 0.0 102162
03:00+15ene22685 0.0 102229
06:00+17ne12695 0.0 102263
09:00+24n22465 0.0 1023486
12:00+28n343495 0.0 10221475
15:00+29nne3432100 0.0 10212211
18:00+29nnw2337100 0.0 10201316
21:00+22n24620 0.0 102063
2 july, sat
sat200:00+18ene22645 0.0 102116
03:00+17n1166100 0.0 102111
06:00+18nnw1167100 0.0 102128
09:00+25nw124690 0.0 1020381
12:00+29nw2335100 0.0 10201571
15:00+30nw2333100 0.0 10182138
18:00+28nw2547100 0.0 1018306
21:00+23wnw116626 0.0 101712
3 july, sun
sun300:00+20ne0071100 0.0 101811
03:00+19sse1173100 0.0 101711
06:00+20sw237277 0.0 101790
09:00+25wsw2357100 0.0 1016487
12:00+29nw224279 0.0 10151568
15:00+31nw223496 0.0 10142801
18:00+25sw3651100 0.0 1014123
21:00+23wsw2262100 0.0 101421